Location: Springfield
(37.2150°N, 93.2980°W)
Time: 08:24:30
(UTC-05:00)

NOSS 0 Rocket - Pass Details

Date: 19 April 2018
Orbit: 934 x 956 km, 70.0° (Epoch: 19 May)

Event Time Altitude Azimuth Distance (km) Brightness Sun altitude
Rises 21:25:50 0° 198° (SSW) 3,580 6.8 -18.0°
Reaches altitude 10° 21:28:21 10° 197° (SSW) 2,642 6.1 -18.5°
Maximum altitude 21:34:28 81° 112° (ESE) 958 3.8 -19.5°
Drops below altitude 10° 21:40:41 10° 26° (NNE) 2,673 6.4 -20.5°
Sets 21:43:13 0° 25° (NNE) 3,624 7.1 -21.0°
